{"data":{"norad_id":61697,"epoch":"2026-09-21T20:04:29.716320Z","epoch_age_seconds":72653,"freshness":"FRESH","line1":"1 61697U 24195L   26264.83645505  .00000042  00000+0  52001-5 0  9994","line2":"2 61697  53.1590 139.1095 0000925  71.7068 288.4050 15.69706048109842","mean_motion":15.69706048,"eccentricity":9.25e-5,"inclination_deg":53.159,"raan_deg":139.1095,"arg_perigee_deg":71.7068,"mean_anomaly_deg":288.405,"bstar":5.2001e-6,"rev_number":10984,"period_min":91.73692117927,"perigee_km":359.11480611175,"apogee_km":360.36131299777,"semimajor_km":6737.8750595548,"source":"CELESTRAK","updated_at":"2026-09-22T09:00:49.407946Z"}}